Terminal Aerodrome Forecast
Issued by NWS

Home | Current Version | Previous Version | Text Only | Print | Product List | Glossary On
Versions: 1 2 3 4 5 6 7 8 9 10 11 12 13 14 15 16 17 18 19 20
000
FTAK31 PAJN 291137
TAFASI
TAF
PASI 291137Z 2912/3012 12006KT P6SM -SHRA SCT015 BKN025 OVC035
      TEMPO 2912/2916 2SM SHRA BR OVC012
     FM292100 22007KT P6SM -SHRA SCT015 BKN025 OVC040
     FM300000 23006KT 6SM -SHRA BKN015 OVC025
     FM300600 23004KT P6SM BKN015 OVC025=

USA.gov is the U.S. government's official web portal to all federal, state and local government web resources and services.